EW6584 Weather Reports


time (UTC)temp
C
wind
direction
speed
KPH
gust
KPH
rain 1hr
cm
rain 24hr
cm
rain mn
cm
humidity
%
barometer
mb
20260507080053 11 184 1.6 4.8 0.00 0.00 0.00 89 1020.9
20260507074504 11 184 1.6 4.8 0.00 0.00 0.00 88 1020.9
20260507073020 11 199 3.2 6.4 0.00 0.00 0.00 88 1020.8
20260507071535 11 224 1.6 8.0 0.00 0.00 0.00 88 1020.8
20260507070039 11 215 1.6 11.3 0.00 0.00 0.00 89 1020.8
20260507064544 11 255 0.0 6.4 0.00 0.00 0.00 90 1020.8
20260507063056 11 237 1.6 12.9 0.00 0.00 0.00 89 1020.7
20260507061518 11 207 3.2 9.7 0.00 0.00 0.00 90 1020.8
20260507060027 11 206 4.8 11.3 0.00 0.00 0.00 90 1020.8
20260507054540 11 250 3.2 11.3 0.00 0.00 0.00 91 1020.8
20260507053045 11 248 0.0 6.4 0.00 0.00 0.00 90 1020.8
20260507051539 11 226 1.6 9.7 0.00 0.00 0.00 89 1021.0
20260507050049 11 249 6.4 11.3 0.00 0.00 0.00 87 1020.8
20260507044556 12 225 3.2 11.3 0.00 0.00 0.00 85 1020.8
20260507043015 12 250 6.4 16.1 0.00 0.00 0.00 84 1020.6
20260507041539 12 238 6.4 14.5 0.00 0.00 0.00 83 1020.7
20260507040045 12 262 1.6 11.3 0.00 0.00 0.00 82 1020.7
20260507034520 12 241 3.2 12.9 0.00 0.00 0.00 82 1020.5
20260507033028 12 232 3.2 11.3 0.00 0.00 0.00 82 1020.4
20260507031539 12 239 3.2 8.0 0.00 0.00 0.00 81 1020.3
20260507030059 12 235 4.8 12.9 0.00 0.00 0.00 81 1020.1
20260507024514 12 258 1.6 9.7 0.00 0.00 0.00 81 1020.1
20260507023047 13 254 1.6 12.9 0.00 0.00 0.00 80 1020.0
20260507021531 13 206 4.8 14.5 0.00 0.00 0.00 80 1020.0
20260507020014 13 289 3.2 16.1 0.00 0.00 0.00 79 1020.0
20260507014541 13 202 3.2 17.7 0.00 0.00 0.00 78 1019.9
20260507013023 13 241 6.4 16.1 0.00 0.00 0.00 78 1019.9
20260507011522 13 195 3.2 14.5 0.00 0.00 0.00 78 1019.9
20260507010031 13 206 6.4 11.3 0.00 0.00 0.00 78 1020.0
20260507004551 13 256 1.6 12.9 0.00 0.00 0.00 78 1020.0
20260507003011 13 228 4.8 19.3 0.00 0.00 0.00 78 1020.0
20260507001551 14 250 6.4 12.9 0.00 0.00 0.00 77 1020.0
20260507000033 13 212 4.8 12.9 0.00 0.00 0.00 77 1020.0
20260506234552 14 243 1.6 9.7 0.00 0.00 0.00 76 1020.1
20260506233100 14 256 4.8 16.1 0.00 0.00 0.00 75 1020.0
20260506231530 15 320 3.2 11.3 0.00 0.00 0.00 73 1020.1
20260506230056 14 254 4.8 17.7 0.00 0.00 0.00 75 1020.0
20260506224507 14 228 6.4 14.5 0.00 0.00 0.00 76 1020.2
20260506223052 14 239 6.4 12.9 0.00 0.00 0.00 76 1020.3
20260506221531 14 240 8.0 17.7 0.00 0.00 0.00 76 1020.4
20260506220011 13 287 11.3 19.3 0.00 0.00 0.00 78 1020.4
20260506214527 13 263 6.4 14.5 0.00 0.00 0.00 78 1020.5
20260506213052 13 245 4.8 11.3 0.00 0.00 0.00 79 1020.5
20260506211602 13 317 3.2 12.9 0.00 0.00 0.00 79 1020.5
20260506210034 13 219 4.8 16.1 0.00 0.00 0.00 79 1020.4
20260506204522 13 287 3.2 14.5 0.00 0.00 0.00 79 1020.4
20260506203038 13 303 3.2 14.5 0.00 0.00 0.00 79 1020.4
20260506201555 13 227 4.8 12.9 0.00 0.00 0.00 79 1020.3
20260506200058 13 260 4.8 12.9 0.00 0.00 0.00 79 1020.2
20260506194543 13 247 3.2 11.3 0.00 0.00 0.00 79 1020.1
20260506193022 13 225 8.0 17.7 0.00 0.00 0.00 80 1020.0
20260506191607 13 204 8.0 12.9 0.00 0.00 0.00 82 1019.9
20260506191509 13 200 8.0 12.9 0.00 0.00 0.00 83 1020.0
20260506190019 12 217 3.2 11.3 0.00 0.00 0.00 84 1020.0
20260506184530 12 256 3.2 8.0 0.00 0.00 0.00 85 1020.1
20260506183056 12 277 3.2 8.0 0.00 0.00 0.00 85 1020.2
20260506181548 12 239 0.0 11.3 0.00 0.00 0.00 87 1019.7
20260506180057 12 252 0.0 8.0 0.00 0.00 0.00 87 1019.8
20260506174516 12 299 3.2 11.3 0.00 0.00 0.00 88 1019.8
20260506173024 12 240 3.2 12.9 0.00 0.00 0.00 86 1019.8
20260506171513 12 237 1.6 12.9 0.00 0.00 0.00 86 1019.9
20260506170018 12 207 6.4 11.3 0.00 0.00 0.00 88 1019.7
20260506164534 12 240 4.8 12.9 0.00 0.00 0.00 88 1019.8
20260506163058 12 255 3.2 11.3 0.00 0.00 0.00 90 1019.4
20260506161535 11 215 4.8 9.7 0.00 0.00 0.00 91 1019.3
20260506160046 11 206 0.0 4.8 0.00 0.00 0.00 92 1019.5
20260506154605 11 245 0.0 8.0 0.00 0.00 0.00 93 1019.6
20260506154502 11 241 1.6 8.0 0.00 0.00 0.00 93 1019.6
20260506153040 11 210 3.2 6.4 0.00 0.00 0.00 93 1019.5
20260506151548 11 242 1.6 4.8 0.00 0.00 0.00 92 1019.3
20260506150010 11 242 1.6 8.0 0.00 0.00 0.00 91 1019.5
20260506144603 11 212 4.8 9.7 0.00 0.00 0.00 90 1019.4
20260506143042 11 216 6.4 11.3 0.00 0.00 0.00 91 1019.2
20260506141551 11 224 1.6 4.8 0.00 0.00 0.00 91 1019.2
20260506140104 11 231 3.2 11.3 0.00 0.00 0.00 91 1019.2
20260506140002 11 245 3.2 11.3 0.00 0.00 0.00 91 1019.2
20260506134512 11 221 4.8 9.7 0.00 0.00 0.00 91 1018.9
20260506133024 11 215 3.2 11.3 0.00 0.00 0.00 91 1019.0
20260506131535 11 222 1.6 6.4 0.00 0.00 0.00 91 1018.6
20260506130038 11 226 3.2 8.0 0.00 0.00 0.00 91 1018.6
20260506124553 11 196 3.2 6.4 0.00 0.00 0.00 92 1018.5
20260506123038 11 196 3.2 9.7 0.00 0.00 0.00 92 1018.4
20260506121525 11 197 3.2 8.0 0.00 0.00 0.00 91 1018.5
20260506120040 11 192 0.0 6.4 0.00 0.00 0.00 91 1018.3
20260506114539 11 191 3.2 8.0 0.00 0.00 0.00 91 1018.1
20260506113051 11 203 1.6 8.0 0.00 0.00 0.00 91 1018.2
20260506111600 11 195 3.2 6.4 0.00 0.00 0.00 90 1018.2
20260506111501 11 195 3.2 6.4 0.00 0.00 0.00 90 1018.3
20260506110040 11 244 1.6 4.8 0.00 0.00 0.00 90 1018.1
20260506104550 11 243 3.2 6.4 0.00 0.00 0.00 90 1018.0
20260506103124 11 228 0.0 6.4 0.00 0.00 0.00 89 1017.8
20260506103005 11 228 0.0 6.4 0.00 0.00 0.00 89 1017.8
20260506101514 11 228 3.2 6.4 0.00 0.00 0.00 89 1017.7
20260506100029 11 222 1.6 8.0 0.00 0.00 0.00 89 1017.6